Miscellaneous Local Product
Issued by NWS Hastings, NE

Home | Current Version | Previous Version | Text Only | Print | Product List | Glossary On
Versions: 1 2 3 4 5 6 7 8 9 10 11 12 13 14 15 16 17 18 19 20 21 22 23 24 25 26 27 28 29 30 31 32 33 34 35 36 37 38 39 40 41 42 43 44 45 46 47 48 49 50
000
AXUS43 KGID 231002
MISGRI

GID CWA HOURLY WEATHER ROUNDUP
NATIONAL WEATHER SERVICE HASTINGS NE
500 AM CDT WED APR 23 2014

NOTE: "FAIR" INDICATES FEW OR NO CLOUDS BELOW 12,000 FEET WITH NO
SIGNIFICANT WEATHER AND/OR OBSTRUCTIONS TO VISIBILITY.

...SOUTH CENTRAL NEBRASKA...

CITY           SKY/WX    TMP DP  RH WIND       PRES   REMARKS
GRAND ISLAND   LGT RAIN  53  38  56 S18G35    29.78R
HASTINGS       LGT RAIN  54  40  59 SE20G30   29.75F
KEARNEY        CLOUDY    54  39  58 SE22G35   29.72F
ORD            PTCLDY    54  32  43 SE13G28   29.72F
YORK           CLOUDY    54  34  47 SE18G24   29.83F
AURORA         CLOUDY    53  35  51 SE22      29.79F
LEXINGTON      CLOUDY    56  33  41 SE24G32   29.68F
HOLDREGE       CLOUDY    56  34  43 SE28G35   29.72R
HEBRON         CLOUDY    57  33  41 SE7       29.86F

...NEBRASKA PANHANDLE...

CITY           SKY/WX    TMP DP  RH WIND       PRES   REMARKS
CHADRON        CLOUDY    61  47  59 S25G33    29.44S
ALLIANCE       CLOUDY    54  45  71 S20       29.50F
SCOTTSBLUFF    CLOUDY    54  43  66 E9        29.50F
SIDNEY         CLOUDY    53  44  71 S8        29.56F

...WESTERN AND NORTH CENTRAL NEBRASKA...

CITY           SKY/WX    TMP DP  RH WIND       PRES   REMARKS
VALENTINE      MOCLDY    54  33  45 SE14      29.59F
AINSWORTH      MOCLDY    55  32  42 SE22G30   29.62F
ONEILL         CLOUDY    55  29  37 SE23G32   29.72F
BROKEN BOW     MOCLDY    50  33  52 SE14G24   29.69F
IMPERIAL       CLOUDY    59  45  59 S17G25    29.57F
NORTH PLATTE   MOCLDY    58  36  43 SE15G30   29.63F
MCCOOK         MOCLDY    59  42  53 S28G37    29.62F

...EASTERN NEBRASKA...

CITY           SKY/WX    TMP DP  RH WIND       PRES   REMARKS
NORFOLK        CLOUDY    54  35  48 SE23G38   29.80F
SO SIOUX CITY  LGT RAIN  51  39  63 SE14      29.91R
TEKAMAH        PTCLDY    51  33  50 SE14      29.92R
COLUMBUS       MOCLDY    54  34  47 SE15G21   29.85F
ALBION         MOCLDY    53  34  48 SE17G26   29.79F
OMAHA EPPLEY   PTCLDY    53  34  48 SE13      29.93S
OFFUTT AFB     CLEAR     50  36  58 SE9       29.93S
MILLARD        CLEAR     53  35  49 SE12      29.91F
LINCOLN        MOCLDY    56  35  45 SE14      29.91S
NEBRASKA CITY  PTCLDY    53  36  52 SE14      29.93F
BEATRICE       MOCLDY    56  33  42 SE12      29.91R
FALLS CITY     MOCLDY    52  37  56 SE12      29.93F

...NORTHERN KANSAS...

CITY           SKY/WX    TMP DP  RH WIND       PRES   REMARKS
GOODLAND       MOCLDY    57  43  59 S18       29.64F
HILL CITY      MOCLDY    58  39  49 S13G21    29.71F
PHILLIPSBURG   CLEAR     59  34  38 SE17G24   29.75F
SMITH CENTER   CLEAR     52  37  58 SE20      29.78F
BELOIT         MOCLDY    55  39  54 SE13G18   29.81F
HAYS           MOCLDY   N/A N/A N/A SE17      29.76S
RUSSELL        MOCLDY    58  35  42 SE22G30   29.76F
CONCORDIA      CLOUDY    55  41  59 SE22      29.85R
SALINA         CLOUDY    59  35  40 SE17      29.86F
TOPEKA         LGT RAIN  56  39  53 SE15      29.93F



USA.gov is the U.S. government's official web portal to all federal, state and local government web resources and services.